09-03-2022, 00:00:06,    141,    0.0,    6.0,   0.00,   0.00, 1010.7,   77.1, -999.0
09-03-2022, 00:00:15,    141,    0.0,    6.0,   0.00,   0.00, 1010.7,   77.1, -999.0
09-03-2022, 00:00:26,    141,    0.0,    6.0,   0.00,   0.00, 1010.7,   77.1, -999.0
09-03-2022, 00:00:35,    141,    0.0,    6.0,   0.00,   0.00, 1010.7,   77.1, -999.0
09-03-2022, 00:00:45,    141,    0.0,    6.0,   0.00,   0.00, 1010.7,   77.0, -999.0
09-03-2022, 00:00:56,    141,    0.0,    6.1,   0.00,   0.00, 1010.7,   77.2, -999.0
09-03-2022, 00:01:05,    141,    0.0,    6.1,   0.00,   0.00, 1010.7,   77.2, -999.0
09-03-2022, 00:01:15,    141,    0.0,    6.1,   0.00,   0.00, 1010.7,   77.2, -999.0
09-03-2022, 00:01:25,    141,    0.0,    6.0,   0.00,   0.00, 1010.7,   77.1, -999.0
09-03-2022, 00:01:35,    141,    0.0,    6.0,   0.00,   0.00, 1010.7,   77.0, -999.0
09-03-2022, 00:01:45,    148,    0.2,    6.1,   0.00,   0.00, 1010.7,   77.2, -999.0
09-03-2022, 00:01:55,    207,    0.8,    6.1,   0.00,   0.00, 1010.8,   77.6, -999.0
09-03-2022, 00:02:05,    211,    0.0,    6.1,   0.00,   0.00, 1010.7,   77.2, -999.0
09-03-2022, 00:02:15,    210,    0.0,    5.9,   0.00,   0.00, 1010.7,   77.2, -999.0
09-03-2022, 00:02:25,    173,    0.3,    6.1,   0.00,   0.00, 1010.8,   77.5, -999.0
09-03-2022, 00:02:35,    174,    0.1,    6.1,   0.00,   0.00, 1010.7,   77.2, -999.0
09-03-2022, 00:02:45,    174,    0.0,    6.1,   0.00,   0.00, 1010.7,   77.2, -999.0
09-03-2022, 00:02:55,    174,    0.0,    6.1,   0.00,   0.00, 1010.7,   77.3, -999.0
09-03-2022, 00:03:05,    194,    0.7,    6.1,   0.00,   0.00, 1010.8,   77.5, -999.0
09-03-2022, 00:03:15,    194,    0.1,    6.1,   0.00,   0.00, 1010.8,   77.4, -999.0
09-03-2022, 00:03:25,    189,    0.0,    6.1,   0.00,   0.00, 1010.8,   77.2, -999.0
09-03-2022, 00:03:35,    187,    0.2,    6.1,   0.00,   0.00, 1010.8,   77.4, -999.0
09-03-2022, 00:03:45,    169,    0.2,    6.1,   0.00,   0.00, 1010.8,   77.4, -999.0
09-03-2022, 00:03:58,    200,    0.4,    6.2,   0.00,   0.00, 1010.8,   77.5, -999.0
09-03-2022, 00:04:05,    131,    0.0,    6.1,   0.00,   0.00, 1010.7,   77.3, -999.0
09-03-2022, 00:04:14,    158,    0.0,    6.1,   0.00,   0.00, 1010.7,   77.2, -999.0
09-03-2022, 00:04:24,    157,    0.1,    6.2,   0.00,   0.00, 1010.8,   77.3, -999.0
09-03-2022, 00:04:34,    157,    0.2,    6.1,   0.00,   0.00, 1010.8,   77.5, -999.0
09-03-2022, 00:04:44,    157,    0.0,    6.1,   0.00,   0.00, 1010.7,   77.1, -999.0
09-03-2022, 00:04:54,    157,    0.2,    6.1,   0.00,   0.00, 1010.8,   77.4, -999.0
09-03-2022, 00:05:04,    158,    0.0,    6.1,   0.00,   0.00, 1010.8,   77.3, -999.0
09-03-2022, 00:05:14,    159,    0.0,    6.0,   0.00,   0.00, 1010.7,   77.0, -999.0
09-03-2022, 00:05:24,    159,    0.0,    5.9,   0.00,   0.00, 1010.7,   77.1, -999.0
09-03-2022, 00:05:34,    159,    0.0,    6.0,   0.00,   0.00, 1010.7,   77.0, -999.0
09-03-2022, 00:05:44,    159,    0.0,    6.0,   0.00,   0.00, 1010.8,   77.2, -999.0
09-03-2022, 00:05:54,    159,    0.0,    6.1,   0.00,   0.00, 1010.7,   77.2, -999.0
09-03-2022, 00:06:04,    160,    0.0,    6.1,   0.00,   0.00, 1010.7,   77.1, -999.0
09-03-2022, 00:06:14,    160,    0.0,    6.0,   0.00,   0.00, 1010.7,   77.1, -999.0
09-03-2022, 00:06:24,    160,    0.0,    6.0,   0.00,   0.00, 1010.7,   77.1, -999.0
09-03-2022, 00:06:34,    161,    0.0,    6.0,   0.00,   0.00, 1010.7,   77.1, -999.0
09-03-2022, 00:06:44,    160,    0.0,    6.0,   0.00,   0.00, 1010.7,   77.1, -999.0
09-03-2022, 00:06:54,    160,    0.0,    6.1,   0.00,   0.00, 1010.8,   77.2, -999.0
09-03-2022, 00:07:03,    160,    0.0,    6.0,   0.00,   0.00, 1010.8,   77.1, -999.0
09-03-2022, 00:07:14,    160,    0.0,    6.0,   0.00,   0.00, 1010.7,   77.2, -999.0
09-03-2022, 00:07:24,    157,    0.0,    5.9,   0.00,   0.00, 1010.7,   77.2, -999.0
09-03-2022, 00:07:33,    160,    0.0,    6.1,   0.00,   0.00, 1010.8,   77.0, -999.0
09-03-2022, 00:07:44,    160,    0.0,    6.1,   0.00,   0.00, 1010.7,   77.0, -999.0
09-03-2022, 00:07:53,    160,    0.0,    6.0,   0.00,   0.00, 1010.7,   77.2, -999.0
09-03-2022, 00:08:03,    159,    0.0,    6.0,   0.00,   0.00, 1010.7,   77.2, -999.0
09-03-2022, 00:08:13,    161,    0.0,    6.0,   0.00,   0.00, 1010.7,   77.3, -999.0
09-03-2022, 00:08:23,    161,    0.0,    6.1,   0.00,   0.00, 1010.7,   77.3, -999.0
09-03-2022, 00:08:33,    159,    0.3,    6.1,   0.00,   0.00, 1010.8,   77.7, -999.0
09-03-2022, 00:08:43,    158,    0.1,    6.1,   0.00,   0.00, 1010.8,   77.5, -999.0
09-03-2022, 00:08:53,    158,    0.0,    6.0,   0.00,   0.00, 1010.7,   77.2, -999.0
09-03-2022, 00:09:03,    159,    0.0,    6.1,   0.00,   0.00, 1010.7,   77.2, -999.0
09-03-2022, 00:09:13,    159,    0.0,    6.0,   0.00,   0.00, 1010.7,   77.4, -999.0
09-03-2022, 00:09:23,    166,    0.0,    6.0,   0.00,   0.00, 1010.7,   77.3, -999.0
09-03-2022, 00:09:33,    172,    0.6,    6.1,   0.00,   0.00, 1010.8,   77.6, -999.0
09-03-2022, 00:09:43,    172,    0.2,    6.1,   0.00,   0.00, 1010.8,   77.6, -999.0
09-03-2022, 00:09:53,    172,    0.0,    6.0,   0.00,   0.00, 1010.7,   77.3, -999.0
09-03-2022, 00:10:03,    172,    0.0,    6.0,   0.00,   0.00, 1010.7,   77.4, -999.0
09-03-2022, 00:10:13,    172,    0.0,    6.0,   0.00,   0.00, 1010.7,   77.3, -999.0
09-03-2022, 00:10:23,    172,    0.0,    6.0,   0.00,   0.00, 1010.7,   77.3, -999.0
09-03-2022, 00:10:33,    172,    0.0,    6.0,   0.00,   0.00, 1010.7,   77.3, -999.0
09-03-2022, 00:10:42,    172,    0.0,    6.0,   0.00,   0.00, 1010.7,   77.4, -999.0
09-03-2022, 00:10:53,    172,    0.0,    6.0,   0.00,   0.00, 1010.7,   77.5, -999.0
09-03-2022, 00:11:03,    172,    0.0,    6.0,   0.00,   0.00, 1010.7,   77.5, -999.0
09-03-2022, 00:11:12,    172,    0.0,    6.0,   0.00,   0.00, 1010.7,   77.5, -999.0
09-03-2022, 00:11:22,    182,    0.5,    6.1,   0.00,   0.00, 1010.8,   77.8, -999.0
09-03-2022, 00:11:32,    181,    0.0,    6.1,   0.00,   0.00, 1010.7,   77.5, -999.0
09-03-2022, 00:11:42,    181,    0.0,    6.0,   0.00,   0.00, 1010.8,   77.6, -999.0
09-03-2022, 00:11:52,    178,    0.1,    6.1,   0.00,   0.00, 1010.8,   77.7, -999.0
09-03-2022, 00:12:02,    179,    0.2,    6.0,   0.00,   0.00, 1010.8,   77.6, -999.0
09-03-2022, 00:12:12,    171,    0.1,    6.1,   0.00,   0.00, 1010.8,   77.7, -999.0
09-03-2022, 00:12:22,    192,    0.2,    6.1,   0.00,   0.00, 1010.8,   77.7, -999.0
09-03-2022, 00:12:32,    192,    0.0,    6.1,   0.00,   0.00, 1010.8,   77.7, -999.0
09-03-2022, 00:12:42,    193,    0.0,    6.0,   0.00,   0.00, 1010.7,   77.5, -999.0
09-03-2022, 00:12:52,    192,    0.0,    6.0,   0.00,   0.00, 1010.7,   77.5, -999.0
09-03-2022, 00:13:02,    189,    0.0,    6.0,   0.00,   0.00, 1010.7,   77.5, -999.0
09-03-2022, 00:13:12,    191,    0.0,    6.0,   0.00,   0.00, 1010.7,   77.5, -999.0
09-03-2022, 00:13:23,    123,    0.2,    6.1,   0.00,   0.00, 1010.8,   77.7, -999.0
09-03-2022, 00:13:32,    123,    0.2,    6.2,   0.00,   0.00, 1010.8,   77.8, -999.0
09-03-2022, 00:13:42,    146,    0.0,    6.0,   0.00,   0.00, 1010.8,   77.6, -999.0
09-03-2022, 00:13:51,    146,    0.0,    6.0,   0.00,   0.00, 1010.7,   77.5, -999.0
09-03-2022, 00:14:02,    148,    0.3,    6.0,   0.00,   0.00, 1010.8,   77.7, -999.0
09-03-2022, 00:14:12,    148,    0.0,    5.9,   0.00,   0.00, 1010.7,   77.6, -999.0
09-03-2022, 00:14:21,    152,    0.0,    6.0,   0.00,   0.00, 1010.7,   77.6, -999.0
09-03-2022, 00:14:31,    154,    0.6,    6.1,   0.00,   0.00, 1010.8,   77.9, -999.0
09-03-2022, 00:14:42,    154,    0.0,    6.1,   0.00,   0.00, 1010.7,   77.7, -999.0
09-03-2022, 00:14:51,    153,    0.0,    6.0,   0.00,   0.00, 1010.7,   77.4, -999.0
09-03-2022, 00:15:01,    153,    0.0,    6.1,   0.00,   0.00, 1010.8,   77.6, -999.0
09-03-2022, 00:15:12,    153,    0.0,    6.1,   0.00,   0.00, 1010.8,   77.7, -999.0
09-03-2022, 00:15:21,    153,    0.0,    6.1,   0.00,   0.00, 1010.7,   77.5, -999.0
09-03-2022, 00:15:31,    153,    0.0,    6.1,   0.00,   0.00, 1010.7,   77.5, -999.0
09-03-2022, 00:15:41,    153,    0.0,    6.1,   0.00,   0.00, 1010.8,   77.6, -999.0
09-03-2022, 00:15:51,    168,    0.0,    6.1,   0.00,   0.00, 1010.8,   77.6, -999.0
09-03-2022, 00:16:01,    167,    0.5,    6.2,   0.00,   0.00, 1010.9,   78.0, -999.0
09-03-2022, 00:16:11,    172,    0.1,    6.1,   0.00,   0.00, 1010.8,   77.7, -999.0
09-03-2022, 00:16:21,    171,    0.0,    6.1,   0.00,   0.00, 1010.8,   77.5, -999.0
09-03-2022, 00:16:31,    171,    0.0,    6.1,   0.00,   0.00, 1010.7,   77.5, -999.0
09-03-2022, 00:16:41,    171,    0.0,    6.0,   0.00,   0.00, 1010.7,   77.5, -999.0
09-03-2022, 00:16:51,    171,    0.0,    6.0,   0.00,   0.00, 1010.7,   77.5, -999.0
09-03-2022, 00:17:01,    171,    0.0,    6.0,   0.00,   0.00, 1010.7,   77.6, -999.0
09-03-2022, 00:17:11,    171,    0.0,    6.0,   0.00,   0.00, 1010.7,   77.6, -999.0
09-03-2022, 00:17:21,    171,    0.0,    6.1,   0.00,   0.00, 1010.7,   77.6, -999.0
09-03-2022, 00:17:30,    174,    0.0,    6.1,   0.00,   0.00, 1010.7,   77.5, -999.0
09-03-2022, 00:17:40,    174,    0.0,    6.0,   0.00,   0.00, 1010.7,   77.5, -999.0
09-03-2022, 00:17:51,    173,    0.0,    6.0,   0.00,   0.00, 1010.7,   77.6, -999.0
09-03-2022, 00:18:00,    173,    0.0,    6.1,   0.00,   0.00, 1010.7,   77.5, -999.0
09-03-2022, 00:18:10,    173,    0.0,    6.1,   0.00,   0.00, 1010.7,   77.7, -999.0
09-03-2022, 00:18:21,    173,    0.0,    6.1,   0.00,   0.00, 1010.8,   77.6, -999.0
09-03-2022, 00:18:30,    173,    0.0,    6.0,   0.00,   0.00, 1010.8,   77.6, -999.0
09-03-2022, 00:18:40,    172,    0.0,    6.1,   0.00,   0.00, 1010.8,   77.6, -999.0
09-03-2022, 00:18:50,    173,    0.0,    6.1,   0.00,   0.00, 1010.8,   77.8, -999.0
09-03-2022, 00:19:00,    172,    0.2,    6.1,   0.00,   0.00, 1010.9,   77.9, -999.0
09-03-2022, 00:19:10,    172,    0.0,    6.1,   0.00,   0.00, 1010.8,   77.7, -999.0
09-03-2022, 00:19:20,    172,    0.0,    6.1,   0.00,   0.00, 1010.8,   77.6, -999.0
09-03-2022, 00:19:30,    172,    0.0,    6.1,   0.00,   0.00, 1010.8,   77.9, -999.0
09-03-2022, 00:19:40,    176,    0.0,    6.0,   0.00,   0.00, 1010.8,   77.8, -999.0
09-03-2022, 00:19:50,    176,    0.0,    6.0,   0.00,   0.00, 1010.8,   77.6, -999.0
09-03-2022, 00:20:00,    176,    0.0,    6.1,   0.00,   0.00, 1010.8,   77.6, -999.0
09-03-2022, 00:20:10,    176,    0.0,    6.1,   0.00,   0.00, 1010.8,   77.6, -999.0
09-03-2022, 00:20:20,    177,    0.0,    6.1,   0.00,   0.00, 1010.8,   77.8, -999.0
09-03-2022, 00:20:30,    176,    0.0,    6.1,   0.00,   0.00, 1010.8,   77.7, -999.0
09-03-2022, 00:20:40,    177,    0.0,    5.9,   0.00,   0.00, 1010.8,   77.8, -999.0
09-03-2022, 00:20:50,    174,    0.2,    6.1,   0.00,   0.00, 1010.9,   78.0, -999.0
09-03-2022, 00:21:00,    175,    0.0,    6.1,   0.00,   0.00, 1010.8,   77.6, -999.0
09-03-2022, 00:21:09,    174,    0.1,    6.1,   0.00,   0.00, 1010.9,   77.8, -999.0
09-03-2022, 00:21:19,    161,    0.7,    6.0,   0.00,   0.00, 1010.9,   78.1, -999.0
09-03-2022, 00:21:30,    163,    0.2,    6.0,   0.00,   0.00, 1010.8,   77.9, -999.0
09-03-2022, 00:21:39,    169,    0.3,    5.9,   0.00,   0.00, 1010.8,   77.8, -999.0
09-03-2022, 00:21:49,    168,    1.4,    6.1,   0.00,   0.00, 1010.9,   78.1, -999.0
09-03-2022, 00:21:59,    167,    0.7,    6.1,   0.00,   0.00, 1010.9,   78.2, -999.0
09-03-2022, 00:22:09,    167,    0.0,    6.0,   0.00,   0.00, 1010.8,   77.8, -999.0
09-03-2022, 00:22:19,    167,    0.0,    5.9,   0.00,   0.00, 1010.8,   77.8, -999.0
09-03-2022, 00:22:29,    170,    0.3,    6.1,   0.00,   0.00, 1010.8,   78.1, -999.0
09-03-2022, 00:22:39,    167,    1.0,    6.1,   0.00,   0.00, 1010.9,   78.1, -999.0
09-03-2022, 00:22:49,    167,    0.0,    6.0,   0.00,   0.00, 1010.8,   77.8, -999.0
09-03-2022, 00:22:59,    186,    0.1,    6.0,   0.00,   0.00, 1010.8,   78.0, -999.0
09-03-2022, 00:23:09,    185,    0.1,    6.0,   0.00,   0.00, 1010.8,   77.9, -999.0
09-03-2022, 00:23:19,    184,    0.1,    6.0,   0.00,   0.00, 1010.8,   78.0, -999.0
09-03-2022, 00:23:29,    185,    0.0,    6.1,   0.00,   0.00, 1010.8,   77.9, -999.0
09-03-2022, 00:23:39,    185,    0.0,    6.0,   0.00,   0.00, 1010.8,   77.8, -999.0
09-03-2022, 00:23:49,    185,    0.0,    6.0,   0.00,   0.00, 1010.8,   77.9, -999.0
09-03-2022, 00:23:59,    184,    0.1,    6.1,   0.00,   0.00, 1010.8,   78.0, -999.0
09-03-2022, 00:24:09,    160,    0.5,    6.0,   0.00,   0.00, 1010.9,   78.3, -999.0
09-03-2022, 00:24:19,    149,    0.4,    6.1,   0.00,   0.00, 1010.9,   78.2, -999.0
09-03-2022, 00:24:28,    148,    0.4,    6.1,   0.00,   0.00, 1010.9,   78.4, -999.0
09-03-2022, 00:24:39,    149,    0.8,    6.1,   0.00,   0.00, 1010.9,   78.4, -999.0
09-03-2022, 00:24:48,    149,    0.0,    6.1,   0.00,   0.00, 1010.8,   78.3, -999.0
09-03-2022, 00:24:58,    150,    0.1,    6.0,   0.00,   0.00, 1010.8,   78.3, -999.0
09-03-2022, 00:25:09,    152,    0.2,    6.1,   0.00,   0.00, 1010.8,   78.3, -999.0
09-03-2022, 00:25:18,    153,    0.8,    6.0,   0.00,   0.00, 1010.9,   78.4, -999.0
09-03-2022, 00:25:28,    177,    1.1,    6.2,   0.00,   0.00, 1010.9,   78.5, -999.0
09-03-2022, 00:25:38,    178,    0.0,    6.0,   0.00,   0.00, 1010.8,   78.2, -999.0
09-03-2022, 00:25:48,    191,    0.1,    6.0,   0.00,   0.00, 1010.8,   78.1, -999.0
09-03-2022, 00:25:58,    181,    0.2,    6.1,   0.00,   0.00, 1010.9,   78.2, -999.0
09-03-2022, 00:26:08,    180,    0.2,    6.1,   0.00,   0.00, 1010.9,   78.3, -999.0
09-03-2022, 00:26:18,    180,    0.0,    6.1,   0.00,   0.00, 1010.8,   78.3, -999.0
09-03-2022, 00:26:28,    180,    0.0,    6.0,   0.00,   0.00, 1010.8,   78.2, -999.0
09-03-2022, 00:26:38,    180,    0.0,    6.0,   0.00,   0.00, 1010.8,   78.3, -999.0
09-03-2022, 00:26:48,    179,    0.0,    6.0,   0.00,   0.00, 1010.8,   78.2, -999.0
09-03-2022, 00:26:58,    179,    0.0,    6.0,   0.00,   0.00, 1010.8,   78.2, -999.0
09-03-2022, 00:27:08,    179,    0.0,    6.1,   0.00,   0.00, 1010.8,   78.3, -999.0
09-03-2022, 00:27:18,    180,    0.0,    6.1,   0.00,   0.00, 1010.8,   78.3, -999.0
09-03-2022, 00:27:28,    178,    0.0,    6.1,   0.00,   0.00, 1010.8,   78.4, -999.0
09-03-2022, 00:27:38,    182,    0.0,    6.1,   0.00,   0.00, 1010.8,   78.2, -999.0
09-03-2022, 00:27:48,    182,    0.0,    6.1,   0.00,   0.00, 1010.8,   78.3, -999.0
09-03-2022, 00:27:58,    180,    0.0,    6.1,   0.00,   0.00, 1010.8,   78.2, -999.0
09-03-2022, 00:28:07,    180,    0.0,    6.1,   0.00,   0.00, 1010.8,   78.3, -999.0
09-03-2022, 00:28:18,    180,    0.0,    6.0,   0.00,   0.00, 1010.8,   78.2, -999.0
09-03-2022, 00:28:28,    178,    0.0,    6.1,   0.00,   0.00, 1010.9,   78.4, -999.0
09-03-2022, 00:28:37,    179,    0.0,    6.1,   0.00,   0.00, 1010.8,   78.2, -999.0
09-03-2022, 00:28:47,    179,    0.0,    6.1,   0.00,   0.00, 1010.8,   78.3, -999.0
09-03-2022, 00:28:57,    160,    0.1,    6.1,   0.00,   0.00, 1010.8,   78.4, -999.0
09-03-2022, 00:29:07,    164,    0.3,    6.2,   0.00,   0.00, 1010.9,   78.6, -999.0
09-03-2022, 00:29:17,    175,    0.8,    6.2,   0.00,   0.00, 1010.9,   78.7, -999.0
09-03-2022, 00:29:27,    178,    0.1,    6.2,   0.00,   0.00, 1010.9,   78.5, -999.0
09-03-2022, 00:29:37,    178,    0.0,    6.1,   0.00,   0.00, 1010.8,   78.3, -999.0
09-03-2022, 00:29:47,    152,    0.3,    6.1,   0.00,   0.00, 1010.9,   78.6, -999.0
09-03-2022, 00:29:57,    171,    0.0,    6.2,   0.00,   0.00, 1010.8,   78.4, -999.0
09-03-2022, 00:30:07,    171,    0.0,    6.1,   0.00,   0.00, 1010.8,   78.2, -999.0
09-03-2022, 00:30:17,    170,    0.2,    6.1,   0.00,   0.00, 1010.9,   78.5, -999.0
09-03-2022, 00:30:27,    176,    0.0,    6.2,   0.00,   0.00, 1010.8,   78.4, -999.0
09-03-2022, 00:30:37,    177,    0.0,    6.1,   0.00,   0.00, 1010.8,   78.3, -999.0
09-03-2022, 00:30:47,    177,    0.0,    6.2,   0.00,   0.00, 1010.8,   78.2, -999.0
09-03-2022, 00:30:57,    178,    0.0,    6.3,   0.00,   0.00, 1010.8,   78.4, -999.0
09-03-2022, 00:31:07,    177,    0.1,    6.2,   0.00,   0.00, 1010.9,   78.4, -999.0
09-03-2022, 00:31:16,    177,    0.0,    6.0,   0.00,   0.00, 1010.8,   78.4, -999.0
09-03-2022, 00:31:27,    177,    0.0,    6.2,   0.00,   0.00, 1010.8,   78.2, -999.0
09-03-2022, 00:31:37,    177,    0.0,    6.1,   0.00,   0.00, 1010.8,   78.3, -999.0
09-03-2022, 00:31:46,    177,    0.0,    6.2,   0.00,   0.00, 1010.9,   78.5, -999.0
09-03-2022, 00:31:56,    145,    0.2,    6.1,   0.00,   0.00, 1010.9,   78.5, -999.0
09-03-2022, 00:32:07,    143,    1.3,    6.2,   0.00,   0.00, 1010.9,   78.7, -999.0
09-03-2022, 00:32:16,    143,    0.2,    6.2,   0.00,   0.00, 1010.9,   78.6, -999.0
09-03-2022, 00:32:26,    155,    0.0,    6.1,   0.00,   0.00, 1010.9,   78.5, -999.0
09-03-2022, 00:32:37,    166,    0.5,    6.2,   0.00,   0.00, 1010.9,   78.7, -999.0
09-03-2022, 00:32:46,    166,    0.1,    6.2,   0.00,   0.00, 1010.8,   78.4, -999.0
09-03-2022, 00:32:56,    166,    0.0,    6.1,   0.00,   0.00, 1010.8,   78.4, -999.0
09-03-2022, 00:33:06,    168,    0.0,    6.2,   0.00,   0.00, 1010.8,   78.4, -999.0
09-03-2022, 00:33:16,    168,    0.0,    6.2,   0.00,   0.00, 1010.8,   78.2, -999.0
09-03-2022, 00:33:26,    168,    0.0,    6.3,   0.00,   0.00, 1010.8,   78.3, -999.0
09-03-2022, 00:33:36,    168,    0.0,    6.2,   0.00,   0.00, 1010.8,   78.3, -999.0
09-03-2022, 00:33:46,    168,    0.0,    6.1,   0.00,   0.00, 1010.8,   78.2, -999.0
09-03-2022, 00:33:56,    179,    0.9,    6.2,   0.00,   0.00, 1010.9,   78.6, -999.0
09-03-2022, 00:34:06,    188,    1.0,    6.3,   0.00,   0.00, 1010.9,   78.6, -999.0
09-03-2022, 00:34:16,    184,    0.0,    6.1,   0.00,   0.00, 1010.8,   78.2, -999.0
09-03-2022, 00:34:26,    140,    0.5,    6.2,   0.00,   0.00, 1010.9,   78.5, -999.0
09-03-2022, 00:34:36,    179,    0.3,    6.3,   0.00,   0.00, 1010.9,   78.4, -999.0
09-03-2022, 00:34:46,    180,    0.0,    6.2,   0.00,   0.00, 1010.8,   78.3, -999.0
09-03-2022, 00:34:55,    180,    0.0,    6.2,   0.00,   0.00, 1010.8,   78.3, -999.0
09-03-2022, 00:35:05,    176,    0.2,    6.3,   0.00,   0.00, 1010.9,   78.7, -999.0
09-03-2022, 00:35:18,    179,    0.0,    6.2,   0.00,   0.00, 1010.8,   78.4, -999.0
09-03-2022, 00:35:25,    179,    0.0,    6.3,   0.00,   0.00, 1010.8,   78.5, -999.0
09-03-2022, 00:35:35,    150,    0.5,    6.2,   0.00,   0.00, 1010.9,   78.6, -999.0
09-03-2022, 00:35:46,    164,    0.5,    6.2,   0.00,   0.00, 1010.9,   78.6, -999.0
09-03-2022, 00:35:55,    135,    0.7,    6.3,   0.00,   0.00, 1010.9,   78.6, -999.0
09-03-2022, 00:36:05,    145,    1.3,    6.3,   0.00,   0.00, 1011.0,   78.6, -999.0
09-03-2022, 00:36:15,    142,    0.7,    6.2,   0.00,   0.00, 1010.9,   78.5, -999.0
09-03-2022, 00:36:25,    144,    0.3,    6.3,   0.00,   0.00, 1010.9,   78.4, -999.0
09-03-2022, 00:36:35,    146,    0.0,    6.2,   0.00,   0.00, 1010.8,   78.3, -999.0
09-03-2022, 00:36:45,    145,    0.0,    6.2,   0.00,   0.00, 1010.8,   78.3, -999.0
09-03-2022, 00:36:55,    146,    0.0,    6.2,   0.00,   0.00, 1010.8,   78.4, -999.0
09-03-2022, 00:37:05,    146,    0.0,    6.2,   0.00,   0.00, 1010.8,   78.3, -999.0
09-03-2022, 00:37:15,    145,    0.0,    6.2,   0.00,   0.00, 1010.8,   78.3, -999.0
09-03-2022, 00:37:25,    146,    0.0,    6.2,   0.00,   0.00, 1010.8,   78.3, -999.0
09-03-2022, 00:37:35,    146,    0.0,    6.2,   0.00,   0.00, 1010.8,   78.3, -999.0
09-03-2022, 00:37:45,    150,    0.2,    6.2,   0.00,   0.00, 1010.9,   78.5, -999.0
09-03-2022, 00:37:55,    152,    1.4,    6.3,   0.00,   0.00, 1010.9,   78.6, -999.0
09-03-2022, 00:38:05,    173,    1.1,    6.4,   0.00,   0.00, 1010.9,   78.6, -999.0
09-03-2022, 00:38:15,    176,    0.2,    6.2,   0.00,   0.00, 1010.9,   78.5, -999.0
09-03-2022, 00:38:25,    176,    0.0,    6.1,   0.00,   0.00, 1010.8,   78.2, -999.0
09-03-2022, 00:38:34,    176,    0.0,    6.2,   0.00,   0.00, 1010.8,   78.3, -999.0
09-03-2022, 00:38:44,    136,    0.2,    6.2,   0.00,   0.00, 1010.8,   78.4, -999.0
09-03-2022, 00:38:55,    136,    0.3,    6.3,   0.00,   0.00, 1010.9,   78.5, -999.0
09-03-2022, 00:39:04,    136,    0.3,    6.3,   0.00,   0.00, 1010.8,   78.4, -999.0
09-03-2022, 00:39:14,    138,    0.0,    6.3,   0.00,   0.00, 1010.8,   78.5, -999.0
09-03-2022, 00:39:25,    140,    0.1,    6.3,   0.00,   0.00, 1010.9,   78.5, -999.0
09-03-2022, 00:39:34,    140,    0.0,    6.2,   0.00,   0.00, 1010.8,   78.4, -999.0
09-03-2022, 00:39:44,    180,    0.1,    6.3,   0.00,   0.00, 1010.8,   78.4, -999.0
09-03-2022, 00:39:54,    181,    0.1,    6.3,   0.00,   0.00, 1010.8,   78.4, -999.0
09-03-2022, 00:40:04,    181,    0.0,    6.2,   0.00,   0.00, 1010.8,   78.3, -999.0
09-03-2022, 00:40:14,    180,    0.0,    6.3,   0.00,   0.00, 1010.8,   78.3, -999.0
09-03-2022, 00:40:24,    180,    0.0,    6.2,   0.00,   0.00, 1010.8,   78.4, -999.0
09-03-2022, 00:40:34,    180,    0.0,    6.2,   0.00,   0.00, 1010.8,   78.2, -999.0
09-03-2022, 00:40:44,    180,    0.0,    6.2,   0.00,   0.00, 1010.8,   78.3, -999.0
09-03-2022, 00:40:54,    180,    0.0,    6.2,   0.00,   0.00, 1010.8,   78.3, -999.0
09-03-2022, 00:41:04,    180,    0.0,    6.2,   0.00,   0.00, 1010.8,   78.4, -999.0
09-03-2022, 00:41:14,    179,    0.0,    6.2,   0.00,   0.00, 1010.8,   78.2, -999.0
09-03-2022, 00:41:24,    162,    0.1,    6.3,   0.00,   0.00, 1010.9,   78.5, -999.0
09-03-2022, 00:41:34,    173,    1.1,    6.3,   0.00,   0.00, 1011.0,   78.8, -999.0
09-03-2022, 00:41:44,    166,    0.3,    6.3,   0.00,   0.00, 1010.9,   78.7, -999.0
09-03-2022, 00:41:55,    163,    1.2,    6.3,   0.00,   0.00, 1011.0,   78.6, -999.0
09-03-2022, 00:42:04,    161,    0.3,    6.3,   0.00,   0.00, 1010.9,   78.6, -999.0
09-03-2022, 00:42:13,    161,    0.1,    6.3,   0.00,   0.00, 1010.9,   78.4, -999.0
09-03-2022, 00:42:23,    159,    0.5,    6.3,   0.00,   0.00, 1010.9,   78.6, -999.0
09-03-2022, 00:42:34,    159,    0.0,    6.3,   0.00,   0.00, 1010.9,   78.4, -999.0
09-03-2022, 00:42:43,    159,    0.0,    6.3,   0.00,   0.00, 1010.8,   78.5, -999.0
09-03-2022, 00:42:53,    158,    0.0,    6.2,   0.00,   0.00, 1010.8,   78.3, -999.0
09-03-2022, 00:43:03,    148,    0.1,    6.2,   0.00,   0.00, 1010.8,   78.4, -999.0
09-03-2022, 00:43:13,    184,    0.5,    6.3,   0.00,   0.00, 1010.9,   78.7, -999.0
09-03-2022, 00:43:23,    182,    0.0,    6.2,   0.00,   0.00, 1010.8,   78.5, -999.0
09-03-2022, 00:43:33,    181,    0.0,    6.3,   0.00,   0.00, 1010.8,   78.4, -999.0
09-03-2022, 00:43:43,    181,    0.0,    6.3,   0.00,   0.00, 1010.9,   78.5, -999.0
09-03-2022, 00:43:53,    180,    0.0,    6.3,   0.00,   0.00, 1010.9,   78.5, -999.0
09-03-2022, 00:44:03,    180,    0.0,    6.3,   0.00,   0.00, 1010.8,   78.6, -999.0
09-03-2022, 00:44:13,    180,    0.0,    6.3,   0.00,   0.00, 1010.8,   78.4, -999.0
09-03-2022, 00:44:23,    181,    0.0,    6.2,   0.00,   0.00, 1010.8,   78.5, -999.0
09-03-2022, 00:44:33,    180,    0.0,    6.3,   0.00,   0.00, 1010.8,   78.4, -999.0
09-03-2022, 00:44:43,    180,    0.0,    6.3,   0.00,   0.00, 1010.8,   78.4, -999.0
09-03-2022, 00:44:53,    140,    1.1,    6.3,   0.00,   0.00, 1010.9,   78.5, -999.0
09-03-2022, 00:45:03,    177,    0.6,    6.4,   0.00,   0.00, 1010.9,   78.7, -999.0
09-03-2022, 00:45:13,    176,    0.0,    6.3,   0.00,   0.00, 1010.8,   78.5, -999.0
09-03-2022, 00:45:23,    176,    0.0,    6.3,   0.00,   0.00, 1010.8,   78.4, -999.0
09-03-2022, 00:45:32,    177,    0.0,    6.2,   0.00,   0.00, 1010.9,   78.4, -999.0
09-03-2022, 00:45:43,    177,    0.0,    6.3,   0.00,   0.00, 1010.8,   78.3, -999.0
09-03-2022, 00:45:53,    176,    0.0,    6.3,   0.00,   0.00, 1010.8,   78.3, -999.0
09-03-2022, 00:46:02,    176,    0.0,    6.2,   0.00,   0.00, 1010.9,   78.3, -999.0
09-03-2022, 00:46:13,    176,    0.0,    6.3,   0.00,   0.00, 1010.8,   78.3, -999.0
09-03-2022, 00:46:22,    176,    0.3,    6.3,   0.00,   0.00, 1010.9,   78.6, -999.0
09-03-2022, 00:46:32,    131,    1.9,    6.4,   0.00,   0.00, 1011.0,   78.8, -999.0
09-03-2022, 00:46:42,    172,    1.0,    6.3,   0.00,   0.00, 1011.0,   78.7, -999.0